[[{"header":{"parameterUnit":"m.s-1","parameterCategory":2,"la1":30.2991,"la2":30.254,"lo1":-89.0895,"lo2":-89.0444,"dy":0.0017,"dx":0.0017,"nx":28,"ny":28,"refTime":"2024-10-20T21:00:00:Z","depth":"0","parameterNumber":2,"parameterNumberName":"U-component_of_CURRENTS"},"data":[0,0,0,0,0,0,0,0,0,0,0,0,0,0,0,0,0,0,0,0,0,0,0,0,0,0,0,0,0,0,0,0,0,0,0,0,0,0,0,0,0,0,0,0,0,0,0,0,0,0,0,0,0,0,0,0,0,0,0.2012,0.2013,0,0.204,0.204,0.204,0.204,0.204,0.204,0.204,0.2019,0.2018,0.2018,0,0,0,0,0,0,0,0,0,0,0,0,0,0.1931,0.1932,0.2012,0.2013,0.2013,0.204,0.204,0.204,0.204,0.204,0.204,0.204,0.2019,0.2019,0.2018,0,0,0,0,0,0,0,0,0,0,0,0,0,0.196,0.1933,0.2012,0.2019,0.202,0.204,0.204,0.204,0.204,0.204,0.204,0.204,0.2019,0.2019,0.2018,0.2014,0,0,0.2015,0.2015,0,0,0,0,0,0,0,0,0.1958,0.1962,0.2017,0.2019,0.202,0.204,0.2004,0.203,0.204,0.2028,0.204,0.204,0.2024,0.2023,0.2023,0.2013,0.2012,0.2015,0.2015,0.2015,0.2014,0,0,0,0,0,0,0,0.1956,0.1961,0.2019,0.2018,0.202,0.2012,0.2016,0.2009,0.2022,0.2029,0.203,0.204,0.2024,0.2024,0.2023,0.2012,0.2015,0.2015,0.2014,0.2014,0.2027,0.2028,0,0,0,0,0,0,0.1962,0.1959,0.2018,0.2021,0.1993,0.2014,0.2018,0.203,0.2023,0.2024,0.204,0.204,0.2026,0.2024,0.2022,0.2048,0.2015,0.2014,0.2013,0.2027,0.2028,0.2029,0,0,0,0,0,0,0.196,0.1967,0.2017,0.1993,0.2,0.2016,0.2029,0.2031,0.2036,0.2032,0.2031,0.2044,0.2025,0.2023,0.2024,0.2046,0.2013,0.2013,0.2026,0.2027,0.2028,0.2079,0,0,0,0,0,0,0.1958,0.1966,0.1972,0.1994,0.2001,0.2036,0.203,0.2032,0.2043,0.2043,0.2035,0.2033,0.2025,0.2026,0.2024,0.2044,0.2012,0.2025,0.2026,0.2028,0.2077,0.2082,0.2087,0,0,0,0,0,0.1955,0.1965,0.1972,0.1979,0.201,0.2037,0.204,0.2048,0.2044,0.205,0.2046,0.2034,0.2034,0.2026,0.2023,0.2044,0.2024,0.2026,0.2028,0.2074,0.2081,0.2087,0,0,0,0,0,0,0.1926,0.1967,0.1975,0.1995,0.2018,0.2038,0.2045,0.2051,0.2052,0.205,0.204,0.2038,0.2051,0.2037,0.2028,0.2053,0.2029,0.203,0.2065,0.2072,0.2077,0.2081,0.2012,0,0,0,0,0,0.1925,0.1946,0.198,0.1994,0.2009,0.2027,0.2037,0.2046,0.2055,0.2055,0.2053,0.205,0.2056,0.2055,0.2056,0.2062,0.2071,0.2075,0.208,0.2085,0.2087,0.211,0.2117,0.2035,0.2035,0.2035,0,0,0.1916,0.1943,0.1951,0.199,0.2007,0.2033,0.2032,0.2053,0.2071,0.2052,0.2067,0.2067,0.2063,0.2078,0.2083,0.2068,0.2119,0.2087,0.2091,0.2091,0.2112,0.212,0.2128,0.2036,0.2036,0.2036,0,0,0.1914,0.1935,0.1954,0.198,0.2017,0.2034,0.2043,0.207,0.2079,0.2095,0.2093,0.2106,0.2104,0.2115,0.2117,0.2148,0.2148,0.2148,0.2175,0.2197,0.2204,0.221,0.2262,0.2272,0.2148,0.2148,0.2148,0,0.1899,0.1933,0.1961,0.1992,0.2012,0.2037,0.206,0.2079,0.2101,0.2113,0.2105,0.2129,0.2125,0.2154,0.2168,0.2161,0.218,0.2152,0.2205,0.2211,0.2216,0.2267,0.2278,0.2151,0.215,0.215,0.215,0,0.192,0.1946,0.1961,0.201,0.2033,0.2058,0.2095,0.2119,0.2131,0.2148,0.2178,0.2179,0.2195,0.2201,0.2193,0.2234,0.224,0.2213,0.219,0.2228,0.2279,0.229,0.2154,0.2153,0.2153,0.2152,0,0,0.1887,0.196,0.1964,0.199,0.2045,0.2067,0.2109,0.2151,0.218,0.22,0.2235,0.2252,0.2257,0.226,0.2259,0.2276,0.2343,0.2262,0.2262,0.2317,0.242,0.2519,0.254,0.2322,0.2324,0.2325,0.2451,0,0.1891,0.1948,0.1981,0.2024,0.2056,0.2096,0.2128,0.2171,0.2206,0.2248,0.2266,0.2293,0.2279,0.2291,0.2311,0.2337,0.2368,0.2313,0.2372,0.2374,0.246,0.2554,0.2569,0.2691,0.2461,0.2463,0.2464,0,0.1898,0.194,0.1982,0.204,0.2055,0.2079,0.2144,0.2179,0.2247,0.2272,0.2314,0.2335,0.2386,0.2352,0.2428,0.2395,0.2413,0.2426,0.2431,0.2509,0.2492,0.261,0.2718,0.2626,0.248,0.2478,0.2477,0,0.1869,0.1935,0.1966,0.1989,0.2059,0.2079,0.2113,0.218,0.2222,0.2293,0.2337,0.2388,0.2431,0.2456,0.2521,0.2468,0.2611,0.2537,0.2647,0.2654,0.2674,0.2681,0.2701,0.2581,0.2581,0.258,0.258,0,0.1862,0.1887,0.1953,0.1974,0.2002,0.2058,0.2099,0.2145,0.2226,0.2291,0.2343,0.2423,0.2455,0.2551,0.2565,0.2687,0.2656,0.2688,0.2703,0.2697,0.2705,0.2628,0.2565,0.2585,0.2584,0.2583,0.2582,0,0.1821,0.1868,0.1905,0.1973,0.1988,0.2008,0.2085,0.2122,0.2207,0.2303,0.2332,0.2469,0.2614,0.2682,0.2762,0.2774,0.2797,0.2888,0.2908,0.2924,0.2917,0.2857,0.2809,0.2701,0.3017,0.3021,0.3024,0,0.1805,0.1823,0.1886,0.1901,0.1925,0.1969,0.1994,0.2087,0.2144,0.2348,0.2393,0.2583,0.2713,0.2919,0.3009,0.3109,0.2944,0.3151,0.3043,0.2964,0.2905,0.2733,0.2628,0.3093,0.3096,0.3099,0.3101,0,0.1766,0.1785,0.1813,0.1851,0.1874,0.1906,0.1965,0.2009,0.2146,0.2255,0.243,0.2561,0.2848,0.3004,0.3193,0.3244,0.303,0.3208,0.31,0.2972,0.2807,0.2695,0.2973,0.3124,0.3122,0.312,0.3119,0.3118,0.1715,0.1722,0.1759,0.1784,0.1812,0.1829,0.183,0.1925,0.2018,0.2182,0.2384,0.2582,0.293,0.3221,0.3244,0.335,0.32,0.327,0.321,0.3045,0.2919,0.3287,0.3465,0.3465,0.3465,0.3465,0.3464,0,0.1646,0.1666,0.1693,0.1709,0.1706,0.1749,0.1794,0.18,0.1875,0.2117,0.2278,0.2684,0.2948,0.3187,0.3445,0.3345,0.3132,0.326,0.2979,0.2872,0.3207,0.3189,0.3347,0.3347,0.3347,0.3347,0.3347,0.3347,0.1605,0.1605,0.1626,0.1597,0.1606,0.1572,0.1573,0.1612,0.1752,0.1992,0.2237,0.2473,0.2937,0.3351,0.3401,0.332,0.2952,0.2932,0.2763,0.2987,0.2979,0.2972,0.2938,0.3041,0.3041,0.2342,0.2337,0.2333]},{"header":{"parameterUnit":"m.s-1","parameterCategory":2,"la1":30.2991,"la2":30.254,"lo1":-89.0895,"lo2":-89.0444,"dy":0.0017,"dx":0.0017,"nx":28,"ny":28,"refTime":"2024-10-20T21:00:00:Z","depth":"0","parameterNumber":3,"parameterNumberName":"V-component_of_CURRENTS"},"data":[0,0,0,0,0,0,0,0,0,0,0,0,0,0,0,0,0,0,0,0,0,0,0,0,0,0,0,0,0,0,0,0,0,0,0,0,0,0,0,0,0,0,0,0,0,0,0,0,0,0,0,0,0,0,0,0,0,0,-0.0382,-0.0382,0,-0.0414,-0.0414,-0.0414,-0.0437,-0.0437,-0.0437,-0.0437,-0.0485,-0.0486,-0.0487,0,0,0,0,0,0,0,0,0,0,0,0,0,-0.0372,-0.0372,-0.0382,-0.0382,-0.0383,-0.0414,-0.0414,-0.0415,-0.0437,-0.0437,-0.0437,-0.0437,-0.0484,-0.0486,-0.0487,0,0,0,0,0,0,0,0,0,0,0,0,0,-0.0387,-0.0372,-0.0382,-0.0398,-0.04,-0.0414,-0.0414,-0.0415,-0.0437,-0.0437,-0.0437,-0.0438,-0.0484,-0.0486,-0.0487,-0.0491,0,0,-0.0492,-0.0493,0,0,0,0,0,0,0,0,-0.0386,-0.0387,-0.0395,-0.0397,-0.0399,-0.0422,-0.0428,-0.0441,-0.0437,-0.0422,-0.0437,-0.0438,-0.0465,-0.0468,-0.0473,-0.0493,-0.0495,-0.0492,-0.0493,-0.0494,-0.0494,0,0,0,0,0,0,0,-0.0385,-0.0386,-0.0394,-0.0396,-0.0398,-0.0414,-0.0416,-0.0431,-0.0442,-0.0424,-0.0425,-0.0429,-0.0466,-0.0471,-0.0474,-0.0496,-0.0492,-0.0494,-0.0495,-0.0495,-0.0544,-0.0544,0,0,0,0,0,0,-0.0379,-0.0385,-0.0393,-0.0395,-0.0393,-0.0414,-0.0416,-0.0414,-0.0441,-0.0446,-0.0429,-0.043,-0.0468,-0.0472,-0.0476,-0.0501,-0.0494,-0.0495,-0.0496,-0.0544,-0.0544,-0.0544,0,0,0,0,0,0,-0.0379,-0.038,-0.0392,-0.0392,-0.0394,-0.0414,-0.0411,-0.0414,-0.042,-0.0445,-0.045,-0.0431,-0.0469,-0.0474,-0.0489,-0.0503,-0.0496,-0.0498,-0.0543,-0.0544,-0.0544,-0.0539,0,0,0,0,0,0,-0.0378,-0.0379,-0.0374,-0.0391,-0.0394,-0.0397,-0.0411,-0.0415,-0.0422,-0.0424,-0.0449,-0.0453,-0.047,-0.0487,-0.0491,-0.0505,-0.0499,-0.0543,-0.0543,-0.0544,-0.0539,-0.054,-0.054,0,0,0,0,0,-0.0378,-0.0365,-0.0373,-0.0375,-0.0387,-0.0397,-0.04,-0.0415,-0.0422,-0.0421,-0.044,-0.0453,-0.0494,-0.0488,-0.0493,-0.0507,-0.0543,-0.0543,-0.0544,-0.0539,-0.054,-0.054,0,0,0,0,0,0,-0.0351,-0.0367,-0.0376,-0.0367,-0.0382,-0.0401,-0.0399,-0.0412,-0.0426,-0.0428,-0.0452,-0.0458,-0.048,-0.049,-0.0483,-0.0523,-0.0522,-0.0524,-0.0517,-0.0517,-0.0518,-0.0515,-0.05,0,0,0,0,0,-0.0345,-0.0342,-0.0362,-0.0354,-0.0359,-0.038,-0.0385,-0.0397,-0.0413,-0.0419,-0.0439,-0.0461,-0.0486,-0.0498,-0.0517,-0.0533,-0.0551,-0.0547,-0.0548,-0.0548,-0.0549,-0.0596,-0.0601,-0.0547,-0.0547,-0.0547,0,0,-0.0331,-0.034,-0.0338,-0.0349,-0.036,-0.0366,-0.0383,-0.0388,-0.0399,-0.0422,-0.0437,-0.0462,-0.049,-0.0514,-0.0524,-0.0524,-0.0569,-0.0549,-0.0549,-0.055,-0.0597,-0.0602,-0.0607,-0.0547,-0.0547,-0.0547,0,0,-0.0305,-0.0312,-0.0304,-0.0317,-0.0334,-0.0349,-0.035,-0.0372,-0.0386,-0.0403,-0.0429,-0.0461,-0.0486,-0.0519,-0.0537,-0.055,-0.057,-0.0555,-0.0557,-0.0602,-0.0607,-0.0612,-0.0626,-0.0632,-0.0556,-0.0556,-0.0556,0,-0.0287,-0.0283,-0.0302,-0.0303,-0.031,-0.0341,-0.0337,-0.0358,-0.0384,-0.0397,-0.0405,-0.0465,-0.0493,-0.0535,-0.0546,-0.0553,-0.0569,-0.0553,-0.0604,-0.0609,-0.0614,-0.0627,-0.0633,-0.0556,-0.0556,-0.0556,-0.0556,0,-0.0263,-0.0262,-0.0257,-0.0271,-0.0281,-0.0281,-0.0315,-0.0331,-0.0353,-0.0378,-0.0419,-0.0462,-0.0497,-0.0519,-0.0539,-0.0589,-0.0585,-0.0599,-0.0602,-0.0619,-0.0631,-0.0638,-0.0556,-0.0556,-0.0556,-0.0556,0,0,-0.0213,-0.0234,-0.0232,-0.0233,-0.0263,-0.0265,-0.029,-0.0317,-0.032,-0.0374,-0.0385,-0.0462,-0.0487,-0.051,-0.0546,-0.0595,-0.0646,-0.0611,-0.0614,-0.0624,-0.0725,-0.0669,-0.0672,-0.0671,-0.0673,-0.0674,-0.0714,0,-0.0186,-0.0177,-0.0199,-0.0191,-0.0188,-0.0229,-0.0238,-0.0271,-0.0302,-0.032,-0.0397,-0.0416,-0.0483,-0.0489,-0.0559,-0.0613,-0.0667,-0.0633,-0.0708,-0.071,-0.0659,-0.0679,-0.0612,-0.0638,-0.0721,-0.0722,-0.0723,0,-0.0154,-0.0152,-0.0137,-0.0145,-0.0145,-0.0146,-0.0163,-0.0177,-0.0228,-0.025,-0.0311,-0.0352,-0.0435,-0.0478,-0.0615,-0.0588,-0.0662,-0.0715,-0.0718,-0.0674,-0.0668,-0.0639,-0.0648,-0.0826,-0.0734,-0.0733,-0.0732,0,-0.0105,-0.0108,-0.0092,-0.0096,-0.011,-0.011,-0.0118,-0.0153,-0.0139,-0.02,-0.0182,-0.0306,-0.0315,-0.0463,-0.0572,-0.0599,-0.0698,-0.0746,-0.0772,-0.0767,-0.0728,-0.0718,-0.0918,-0.0855,-0.0855,-0.0855,-0.0855,0,-0.0067,-0.0052,-0.0064,-0.0053,-0.0019,-0.0053,-0.0017,-0.0048,-0.0052,0.0006,-0.0133,-0.0092,-0.031,-0.0383,-0.054,-0.0652,-0.0677,-0.0772,-0.0781,-0.0721,-0.071,-0.0876,-0.0982,-0.0856,-0.0856,-0.0856,-0.0855,0,-0.0013,-0.0026,-0.0001,-0.0002,0.0007,0.0032,0.0069,0.0105,0.008,0.0154,0.015,0.0076,-0.0005,-0.021,-0.0398,-0.0554,-0.0783,-0.0738,-0.0633,-0.0629,-0.0837,-0.0943,-0.1135,-0.1204,-0.0797,-0.0796,-0.0795,0,0.0015,0.0033,0.0054,0.0085,0.009,0.0128,0.0177,0.017,0.0242,0.0295,0.0366,0.0304,0.0322,0.0051,-0.0232,-0.0494,-0.0698,-0.0629,-0.069,-0.0841,-0.0968,-0.1058,-0.1109,-0.0635,-0.0633,-0.0631,-0.063,0,0.0077,0.0084,0.0107,0.0176,0.0228,0.0299,0.038,0.0469,0.0517,0.06,0.0734,0.0748,0.0521,0.0311,-0.0061,-0.0264,-0.0737,-0.06,-0.0804,-0.0896,-0.0963,-0.1031,-0.0602,-0.0614,-0.0616,-0.0617,-0.0618,-0.0618,0.0134,0.0168,0.021,0.0278,0.0348,0.0488,0.0599,0.0722,0.0885,0.107,0.1058,0.1149,0.0789,0.0311,-0.0015,-0.0554,-0.0606,-0.0735,-0.0859,-0.0943,-0.0997,-0.0511,-0.0503,-0.0504,-0.0505,-0.0506,-0.0506,0,0.022,0.0256,0.0316,0.0416,0.0527,0.0548,0.0755,0.0906,0.1156,0.1317,0.1447,0.1393,0.0927,0.0396,-0.0329,-0.0744,-0.0931,-0.0989,-0.1139,-0.1187,-0.0789,-0.0769,-0.0761,-0.076,-0.076,-0.076,-0.076,-0.076,0.0269,0.0349,0.0376,0.0563,0.0649,0.0862,0.1008,0.123,0.1406,0.1663,0.1772,0.1808,0.1444,0.0083,-0.0855,-0.1072,-0.1406,-0.1451,-0.1638,-0.1404,-0.1392,-0.138,-0.1389,-0.151,-0.1511,-0.1964,-0.1969,-0.1972]}],[{"header":{"parameterUnit":"m.s-1","parameterCategory":2,"la1":30.2991,"la2":30.254,"lo1":-89.0895,"lo2":-89.0444,"dy":0.0017,"dx":0.0017,"nx":28,"ny":28,"refTime":"2024-10-20T21:00:00:Z","depth":"2","parameterNumber":2,"parameterNumberName":"U-component_of_CURRENTS"},"data":[0,0,0,0,0,0,0,0,0,0,0,0,0,0,0,0,0,0,0,0,0,0,0,0,0,0,0,0,0,0,0,0,0,0,0,0,0,0,0,0,0,0,0,0,0,0,0,0,0,0,0,0,0,0,0,0,0,0,0.1908,0.1909,0,0.193,0.1931,0.1931,0.1943,0.1943,0.1943,0.1944,0.1945,0.1945,0.1945,0,0,0,0,0,0,0,0,0,0,0,0,0,0.1851,0.1852,0.1908,0.1909,0.1909,0.193,0.1931,0.1931,0.1943,0.1943,0.1944,0.1944,0.1945,0.1945,0.1945,0,0,0,0,0,0,0,0,0,0,0,0,0,0.1873,0.1852,0.1908,0.1919,0.192,0.193,0.1931,0.1931,0.1943,0.1943,0.1944,0.1944,0.1945,0.1945,0.1945,0.1938,0,0,0.1944,0.1944,0,0,0,0,0,0,0,0,0.1872,0.1875,0.1917,0.1918,0.192,0.1936,0.1911,0.1933,0.1943,0.1933,0.1944,0.1944,0.1941,0.1941,0.1943,0.1938,0.1939,0.1944,0.1944,0.1944,0.1944,0,0,0,0,0,0,0,0.187,0.1874,0.1916,0.1917,0.1919,0.1914,0.1917,0.1915,0.1933,0.1934,0.1935,0.194,0.1941,0.1943,0.1943,0.1939,0.1944,0.1944,0.1944,0.1944,0.1978,0.1979,0,0,0,0,0,0,0.1872,0.1873,0.1915,0.1916,0.1898,0.1915,0.1919,0.1929,0.1934,0.1936,0.194,0.194,0.1943,0.1943,0.1943,0.1991,0.1944,0.1944,0.1944,0.1977,0.1979,0.198,0,0,0,0,0,0,0.1871,0.1876,0.1914,0.1896,0.1901,0.1916,0.1927,0.1929,0.1941,0.1939,0.194,0.195,0.1943,0.1943,0.1955,0.1989,0.1944,0.1943,0.1976,0.1978,0.1979,0.2053,0,0,0,0,0,0,0.1869,0.1875,0.1882,0.1896,0.1902,0.1931,0.1927,0.193,0.1943,0.1945,0.1948,0.1948,0.1943,0.1956,0.1955,0.1988,0.1943,0.1975,0.1977,0.1979,0.2049,0.2056,0.2063,0,0,0,0,0,0.1867,0.1876,0.1882,0.1887,0.1911,0.1932,0.1935,0.1945,0.1944,0.1954,0.1958,0.1948,0.1968,0.1956,0.1955,0.1989,0.1974,0.1976,0.1979,0.2046,0.2055,0.2063,0,0,0,0,0,0,0.185,0.1879,0.1886,0.1902,0.1921,0.1935,0.1945,0.195,0.196,0.1963,0.1957,0.1957,0.1984,0.197,0.1958,0.2004,0.1971,0.1973,0.2023,0.2031,0.2038,0.2053,0.1943,0,0,0,0,0,0.1851,0.1868,0.1893,0.1905,0.1919,0.1933,0.1942,0.1951,0.1962,0.1967,0.1971,0.1977,0.1991,0.1997,0.2002,0.2022,0.203,0.2043,0.2051,0.2057,0.2068,0.2101,0.2113,0.1987,0.1987,0.1987,0,0,0.1845,0.1864,0.1873,0.1903,0.1919,0.1948,0.1939,0.1961,0.1986,0.1965,0.1997,0.2,0.2,0.2031,0.2041,0.2025,0.2101,0.206,0.2065,0.2073,0.2105,0.2117,0.2128,0.1989,0.1989,0.1988,0,0,0.1848,0.1866,0.1886,0.1908,0.194,0.1957,0.1967,0.1992,0.2006,0.2033,0.2032,0.2057,0.2066,0.2085,0.2093,0.2138,0.2136,0.2137,0.2188,0.222,0.2231,0.2241,0.2287,0.23,0.2141,0.2142,0.2142,0,0.184,0.1873,0.1893,0.1923,0.1945,0.1967,0.1997,0.2018,0.2042,0.2063,0.2053,0.2099,0.2098,0.2149,0.217,0.2158,0.2176,0.2157,0.2231,0.224,0.2249,0.2294,0.2308,0.2145,0.2145,0.2145,0.2144,0,0.1865,0.1893,0.1908,0.196,0.1986,0.2014,0.2053,0.2085,0.2105,0.2126,0.2176,0.2181,0.2212,0.2219,0.221,0.2275,0.2269,0.2237,0.2213,0.2267,0.231,0.2323,0.2151,0.215,0.2148,0.2147,0,0,0.184,0.1912,0.1917,0.1946,0.2008,0.203,0.2092,0.2149,0.2191,0.2221,0.2273,0.2308,0.2314,0.2323,0.232,0.2349,0.2432,0.2324,0.2324,0.2377,0.2521,0.2481,0.249,0.241,0.2413,0.2414,0.2535,0,0.1854,0.1911,0.1948,0.2003,0.2038,0.2088,0.2138,0.2193,0.224,0.2296,0.2326,0.2364,0.2352,0.2367,0.2404,0.2421,0.2465,0.2403,0.2454,0.2457,0.2419,0.2504,0.2318,0.2406,0.2547,0.2549,0.2551,0,0.1866,0.1906,0.1959,0.2031,0.205,0.2086,0.2179,0.2224,0.2315,0.235,0.2413,0.2432,0.2503,0.2462,0.2556,0.2517,0.2532,0.2541,0.2545,0.249,0.244,0.237,0.2423,0.2572,0.257,0.2568,0.2567,0,0.1835,0.1911,0.1952,0.1976,0.2062,0.2097,0.2146,0.2239,0.2294,0.2383,0.244,0.2511,0.256,0.2593,0.2647,0.2598,0.2746,0.2671,0.2658,0.2656,0.25,0.2479,0.2736,0.2736,0.2735,0.2735,0.2735,0,0.1832,0.1862,0.1938,0.1958,0.2008,0.2073,0.214,0.2205,0.231,0.2392,0.2457,0.2543,0.2594,0.2688,0.2696,0.2751,0.2796,0.2697,0.2691,0.2521,0.2502,0.2632,0.2618,0.274,0.2739,0.2738,0.2737,0,0.1789,0.1839,0.1883,0.1967,0.1991,0.2023,0.2131,0.2187,0.2293,0.2409,0.2443,0.2594,0.2693,0.2761,0.2837,0.2823,0.2861,0.2864,0.2678,0.2647,0.273,0.2719,0.2835,0.2835,0.2835,0.2835,0.2835,0,0.1775,0.1791,0.1869,0.1887,0.192,0.1983,0.2031,0.2153,0.2229,0.2447,0.2503,0.2651,0.2723,0.2849,0.2856,0.2881,0.2898,0.2721,0.2573,0.2761,0.2744,0.2733,0.2722,0.2407,0.2403,0.24,0.2398,0,0.1735,0.1755,0.1791,0.1834,0.1875,0.1938,0.2026,0.2087,0.2254,0.2343,0.2493,0.2565,0.2715,0.2665,0.2731,0.2709,0.2691,0.2657,0.2928,0.2403,0.2364,0.2345,0.2347,0.2371,0.2374,0.2376,0.2377,0.2378,0.1691,0.1701,0.1738,0.1769,0.1819,0.1881,0.1923,0.2017,0.2106,0.2235,0.2377,0.2417,0.2503,0.2469,0.2441,0.2428,0.2565,0.2444,0.245,0.246,0.2382,0.2344,0.2334,0.2336,0.2338,0.234,0.2342,0,0.1624,0.1642,0.1671,0.1719,0.1747,0.1811,0.1908,0.1924,0.1976,0.2088,0.2152,0.204,0.2042,0.2121,0.2071,0.2093,0.2033,0.1999,0.1905,0.1935,0.1962,0.1853,0.1667,0.1665,0.1662,0.166,0,0,0.1583,0.158,0.1598,0.1619,0.167,0.172,0.1763,0.1759,0.1808,0.1781,0.1788,0.1937,0.2065,0.1827,0.1828,0.1741,0.1806,0.1674,0.2225,0.2146,0.2168,0.2246,0.2118,0,0,0,0,0]},{"header":{"parameterUnit":"m.s-1","parameterCategory":2,"la1":30.2991,"la2":30.254,"lo1":-89.0895,"lo2":-89.0444,"dy":0.0017,"dx":0.0017,"nx":28,"ny":28,"refTime":"2024-10-20T21:00:00:Z","depth":"2","parameterNumber":3,"parameterNumberName":"V-component_of_CURRENTS"},"data":[0,0,0,0,0,0,0,0,0,0,0,0,0,0,0,0,0,0,0,0,0,0,0,0,0,0,0,0,0,0,0,0,0,0,0,0,0,0,0,0,0,0,0,0,0,0,0,0,0,0,0,0,0,0,0,0,0,0,-0.0081,-0.0081,0,-0.0131,-0.0132,-0.0133,-0.0175,-0.0175,-0.0175,-0.0176,-0.0256,-0.0258,-0.026,0,0,0,0,0,0,0,0,0,0,0,0,0,-0.0068,-0.0068,-0.0081,-0.0081,-0.0082,-0.0131,-0.0132,-0.0133,-0.0175,-0.0175,-0.0176,-0.0176,-0.0256,-0.0258,-0.026,0,0,0,0,0,0,0,0,0,0,0,0,0,-0.0093,-0.0068,-0.0081,-0.0107,-0.011,-0.0131,-0.0132,-0.0133,-0.0175,-0.0175,-0.0176,-0.0176,-0.0255,-0.0258,-0.0261,-0.027,0,0,-0.0269,-0.027,0,0,0,0,0,0,0,0,-0.0092,-0.0094,-0.0103,-0.0105,-0.0108,-0.0145,-0.0157,-0.018,-0.0175,-0.0152,-0.0176,-0.0176,-0.022,-0.0226,-0.0237,-0.0274,-0.0277,-0.0269,-0.0271,-0.0272,-0.0273,0,0,0,0,0,0,0,-0.009,-0.0092,-0.0103,-0.0103,-0.0107,-0.0132,-0.0136,-0.0162,-0.0186,-0.0154,-0.0157,-0.0159,-0.0223,-0.0234,-0.0239,-0.0278,-0.0269,-0.0272,-0.0274,-0.0275,-0.0339,-0.0339,0,0,0,0,0,0,-0.0077,-0.009,-0.0101,-0.0104,-0.0099,-0.0132,-0.0136,-0.0135,-0.0185,-0.0192,-0.0159,-0.0161,-0.0229,-0.0236,-0.0242,-0.027,-0.0272,-0.0275,-0.0277,-0.0339,-0.0339,-0.0339,0,0,0,0,0,0,-0.0076,-0.0077,-0.0099,-0.0097,-0.0102,-0.0131,-0.0129,-0.0136,-0.015,-0.0187,-0.0196,-0.0167,-0.023,-0.0238,-0.0265,-0.0273,-0.0276,-0.0279,-0.0339,-0.0339,-0.0339,-0.0317,0,0,0,0,0,0,-0.0075,-0.0076,-0.0073,-0.0096,-0.0101,-0.0108,-0.0129,-0.0136,-0.015,-0.0153,-0.0197,-0.0205,-0.0231,-0.026,-0.0267,-0.0277,-0.0281,-0.0339,-0.0339,-0.0339,-0.0318,-0.0316,-0.0315,0,0,0,0,0,-0.0075,-0.0064,-0.0073,-0.0074,-0.0095,-0.0107,-0.0112,-0.0137,-0.015,-0.0153,-0.0183,-0.0204,-0.0266,-0.0262,-0.0271,-0.0282,-0.0339,-0.0339,-0.0339,-0.0318,-0.0316,-0.0315,0,0,0,0,0,0,-0.0055,-0.0067,-0.0078,-0.0071,-0.0087,-0.0113,-0.0117,-0.0134,-0.0161,-0.0166,-0.0204,-0.0214,-0.0241,-0.0261,-0.0256,-0.0299,-0.0306,-0.0308,-0.0287,-0.0286,-0.0284,-0.029,-0.0283,0,0,0,0,0,-0.0048,-0.0045,-0.0063,-0.0058,-0.0065,-0.0092,-0.0101,-0.0116,-0.014,-0.0153,-0.0184,-0.0217,-0.0247,-0.0265,-0.0291,-0.0314,-0.0336,-0.0326,-0.0324,-0.0323,-0.0333,-0.0374,-0.0377,-0.0339,-0.0339,-0.0339,0,0,-0.0039,-0.0045,-0.0043,-0.0054,-0.007,-0.0074,-0.0099,-0.0107,-0.0114,-0.0157,-0.0178,-0.0212,-0.0251,-0.0277,-0.0291,-0.0296,-0.034,-0.0323,-0.0322,-0.0333,-0.0374,-0.0378,-0.0381,-0.0339,-0.0339,-0.0339,0,0,-0.0015,-0.0025,-0.0014,-0.0024,-0.004,-0.0059,-0.0059,-0.0086,-0.0102,-0.0126,-0.0159,-0.0198,-0.0239,-0.0273,-0.0294,-0.03,-0.033,-0.0307,-0.031,-0.0349,-0.0353,-0.0356,-0.0366,-0.0371,-0.0309,-0.0309,-0.0309,0,-0.0004,0.0007,-0.0013,-0.0007,-0.0012,-0.0049,-0.0041,-0.0064,-0.0096,-0.0111,-0.0128,-0.0209,-0.024,-0.0284,-0.0291,-0.0299,-0.0318,-0.0313,-0.0348,-0.0352,-0.0356,-0.0366,-0.0371,-0.0308,-0.0308,-0.0308,-0.0308,0,0.0027,0.0033,0.0038,0.0032,0.0023,0.0024,-0.0005,-0.0023,-0.0053,-0.0082,-0.0132,-0.0186,-0.0237,-0.0254,-0.028,-0.0325,-0.0326,-0.0339,-0.0352,-0.0359,-0.0368,-0.0374,-0.0306,-0.0307,-0.0307,-0.0307,0,0,0.006,0.0061,0.0062,0.007,0.0045,0.0046,0.0028,0.0002,-0.0009,-0.0068,-0.0088,-0.017,-0.0213,-0.0241,-0.0283,-0.0329,-0.0368,-0.035,-0.0353,-0.036,-0.0438,-0.0408,-0.0412,-0.0392,-0.0393,-0.0395,-0.0425,0,0.0089,0.0116,0.0102,0.0121,0.0132,0.0095,0.0089,0.0058,0.0013,-0.0016,-0.0096,-0.0133,-0.0203,-0.0226,-0.0289,-0.0346,-0.0388,-0.0358,-0.0432,-0.0434,-0.0407,-0.042,-0.0409,-0.0433,-0.0431,-0.0432,-0.0433,0,0.0124,0.0138,0.0166,0.0177,0.0178,0.0176,0.0154,0.0144,0.0084,0.005,-0.0029,-0.0084,-0.017,-0.0214,-0.0348,-0.0327,-0.0386,-0.0434,-0.0437,-0.0426,-0.0416,-0.0432,-0.0445,-0.0444,-0.0443,-0.0442,-0.0441,0,0.0166,0.0184,0.021,0.0212,0.0213,0.0213,0.0204,0.0158,0.0166,0.0087,0.0083,-0.0046,-0.0072,-0.0205,-0.0316,-0.0336,-0.0438,-0.047,-0.0498,-0.0495,-0.0509,-0.0505,-0.0558,-0.0558,-0.0558,-0.0558,-0.0557,0,0.0208,0.023,0.0231,0.0247,0.0282,0.026,0.0281,0.0246,0.0226,0.0253,0.012,0.0121,-0.0071,-0.0149,-0.0288,-0.0403,-0.0418,-0.0504,-0.0509,-0.0497,-0.0491,-0.0525,-0.0521,-0.0559,-0.0558,-0.0558,-0.0558,0,0.0253,0.0254,0.0289,0.0297,0.0305,0.0326,0.0355,0.0374,0.0334,0.0366,0.0354,0.0261,0.0153,-0.0026,-0.0198,-0.0323,-0.046,-0.0488,-0.0444,-0.0445,-0.05,-0.0495,-0.0547,-0.0547,-0.0546,-0.0546,-0.0545,0,0.0278,0.0303,0.0332,0.036,0.0365,0.0399,0.0434,0.0423,0.0463,0.0466,0.0505,0.0419,0.036,0.0111,-0.0122,-0.0354,-0.039,-0.0466,-0.0517,-0.0503,-0.0504,-0.0499,-0.0494,-0.052,-0.052,-0.0519,-0.0519,0,0.0331,0.0338,0.0365,0.0424,0.0464,0.0531,0.0584,0.0634,0.0651,0.0661,0.0687,0.0636,0.043,0.0198,-0.0089,-0.0251,-0.0445,-0.0462,-0.0471,-0.0514,-0.0478,-0.0478,-0.0474,-0.0515,-0.0515,-0.0516,-0.0516,-0.0516,0.0366,0.0396,0.0434,0.049,0.0548,0.0644,0.07,0.0762,0.0824,0.0857,0.0835,0.0762,0.0528,0.0148,-0.011,-0.0376,-0.0382,-0.0495,-0.0497,-0.0499,-0.0481,-0.0445,-0.047,-0.0471,-0.0471,-0.0471,-0.0471,0,0.0416,0.0448,0.0502,0.0578,0.0654,0.0689,0.0793,0.0841,0.0901,0.095,0.0938,0.0716,0.0464,0.0203,-0.0187,-0.0428,-0.0479,-0.05,-0.0517,-0.0518,-0.052,-0.0504,-0.05,-0.0501,-0.0501,-0.0502,0,0,0.0444,0.0503,0.0528,0.0651,0.072,0.0826,0.0885,0.0931,0.0968,0.0981,0.0957,0.0893,0.0568,0.0288,-0.0045,-0.0264,-0.034,-0.0316,-0.027,-0.0252,-0.0251,-0.0496,-0.047,0,0,0,0,0]}],[{"header":{"parameterUnit":"m.s-1","parameterCategory":2,"la1":30.2991,"la2":30.254,"lo1":-89.0895,"lo2":-89.0444,"dy":0.0017,"dx":0.0017,"nx":28,"ny":28,"refTime":"2024-10-20T21:00:00:Z","depth":"4","parameterNumber":2,"parameterNumberName":"U-component_of_CURRENTS"},"data":[0,0,0,0,0,0,0,0,0,0,0,0,0,0,0,0,0,0,0,0,0,0,0,0,0,0,0,0,0,0,0,0,0,0,0,0,0,0,0,0,0,0,0,0,0,0,0,0,0,0,0,0,0,0,0,0,0,0,0.1185,0.1186,0,0.125,0.1251,0.1251,0.1303,0.1303,0.1304,0.1304,0.1378,0.1379,0.1381,0,0,0,0,0,0,0,0,0,0,0,0,0,0.1103,0.1104,0.1185,0.1186,0.1187,0.125,0.1251,0.1252,0.1303,0.1303,0.1304,0.1305,0.1377,0.1379,0.1381,0,0,0,0,0,0,0,0,0,0,0,0,0,0.1149,0.1105,0.1185,0.1221,0.1225,0.125,0.1251,0.1252,0.1302,0.1303,0.1304,0.1305,0.1377,0.1379,0.1381,0.1376,0,0,0.1387,0.1388,0,0,0,0,0,0,0,0,0.1147,0.1152,0.1215,0.1219,0.1223,0.127,0.1249,0.1294,0.1302,0.1272,0.1304,0.1306,0.1343,0.1348,0.1356,0.1379,0.1382,0.1388,0.1389,0.139,0.139,0,0,0,0,0,0,0,0.1143,0.115,0.121,0.1216,0.1221,0.1233,0.124,0.1258,0.1301,0.1275,0.1279,0.1287,0.1345,0.1354,0.1358,0.1384,0.1388,0.1389,0.1391,0.1391,0.1485,0.1486,0,0,0,0,0,0,0.1137,0.1147,0.1208,0.1212,0.1188,0.1234,0.1242,0.1253,0.1301,0.1309,0.1286,0.1289,0.135,0.1356,0.1361,0.1425,0.139,0.1392,0.1393,0.1484,0.1485,0.1487,0,0,0,0,0,0,0.1135,0.1142,0.1205,0.1181,0.1191,0.1234,0.1246,0.1254,0.1292,0.131,0.1318,0.132,0.1351,0.1358,0.1404,0.1426,0.1393,0.1395,0.1482,0.1484,0.1486,0.151,0,0,0,0,0,0,0.1132,0.1141,0.1159,0.1181,0.1192,0.1238,0.1246,0.1255,0.1294,0.13,0.134,0.1346,0.1352,0.1401,0.1406,0.1428,0.1396,0.1481,0.1483,0.1486,0.1508,0.1512,0.1517,0,0,0,0,0,0.1129,0.1146,0.116,0.1168,0.1212,0.1239,0.1246,0.1279,0.1295,0.1316,0.1347,0.1347,0.1419,0.1404,0.141,0.1433,0.148,0.1483,0.1485,0.1506,0.1512,0.1516,0,0,0,0,0,0,0.1121,0.1154,0.1169,0.1197,0.1225,0.1249,0.1274,0.1293,0.1333,0.1348,0.1363,0.1371,0.1417,0.1425,0.1407,0.1467,0.1449,0.1453,0.1463,0.1469,0.1473,0.1479,0.1398,0,0,0,0,0,0.1127,0.1151,0.118,0.1205,0.1221,0.1252,0.1273,0.1296,0.1327,0.1347,0.1374,0.1404,0.1428,0.1449,0.147,0.1505,0.1515,0.1524,0.1528,0.1532,0.1542,0.1581,0.159,0.1496,0.1496,0.1496,0,0,0.113,0.1153,0.1167,0.1206,0.1232,0.1255,0.1268,0.1308,0.1333,0.1347,0.1399,0.1421,0.144,0.1479,0.15,0.1492,0.1563,0.1536,0.1538,0.1546,0.1585,0.1594,0.1602,0.1498,0.1497,0.1497,0,0,0.1138,0.1171,0.1191,0.1216,0.1259,0.1278,0.1295,0.1335,0.1363,0.1407,0.1424,0.1465,0.1503,0.1523,0.1534,0.1577,0.1582,0.1587,0.1618,0.1656,0.1664,0.1671,0.1685,0.1694,0.1592,0.1592,0.1592,0,0.1142,0.117,0.1202,0.1224,0.1248,0.129,0.1313,0.1343,0.1395,0.1421,0.143,0.15,0.152,0.1562,0.1584,0.1587,0.1606,0.1593,0.1661,0.1669,0.1676,0.1689,0.1697,0.1593,0.1593,0.1593,0.1593,0,0.1153,0.1187,0.1203,0.1244,0.1274,0.1306,0.1344,0.1385,0.1423,0.1451,0.1511,0.1542,0.1583,0.1597,0.1607,0.1668,0.1663,0.1658,0.1645,0.1686,0.1697,0.1706,0.1595,0.1595,0.1594,0.1594,0,0,0.1133,0.1198,0.1206,0.1232,0.129,0.1313,0.1362,0.1413,0.1452,0.1502,0.1555,0.16,0.1627,0.1643,0.1662,0.1705,0.1768,0.1713,0.1715,0.1722,0.1846,0.1754,0.1754,0.1782,0.1784,0.1786,0.183,0,0.1136,0.1177,0.1212,0.126,0.1284,0.1338,0.1378,0.1432,0.1482,0.1545,0.1588,0.1647,0.1639,0.1679,0.1714,0.1768,0.1795,0.1756,0.181,0.1811,0.172,0.1762,0.1792,0.1836,0.1838,0.1839,0.184,0,0.1129,0.1162,0.1204,0.1272,0.129,0.1329,0.1407,0.145,0.1537,0.1576,0.1635,0.1681,0.1758,0.1747,0.183,0.1811,0.1831,0.1858,0.186,0.1773,0.1735,0.179,0.1856,0.1855,0.1854,0.1853,0.1852,0,0.1088,0.1156,0.1193,0.1215,0.1294,0.1335,0.1388,0.1467,0.1515,0.1617,0.1666,0.1739,0.1804,0.1845,0.1899,0.1882,0.1987,0.196,0.1881,0.1874,0.1932,0.1924,0.2006,0.2006,0.2006,0.2006,0.2005,0,0.1064,0.1097,0.1185,0.1204,0.1262,0.1326,0.1398,0.1454,0.1549,0.161,0.1689,0.1743,0.1841,0.1909,0.1929,0.1934,0.2002,0.1895,0.1886,0.1939,0.1931,0.1937,0.1928,0.2007,0.2007,0.2007,0.2006,0,0.101,0.1066,0.1115,0.1209,0.1244,0.129,0.1406,0.1453,0.1545,0.1631,0.1676,0.1785,0.1869,0.1935,0.2022,0.1965,0.1988,0.1966,0.2022,0.2014,0.1836,0.1828,0.1874,0.1871,0.1868,0.1867,0.1865,0,0.0982,0.1003,0.1109,0.1148,0.1199,0.128,0.1334,0.144,0.1491,0.1636,0.1671,0.1799,0.1858,0.1888,0.1963,0.1986,0.1962,0.1945,0.1882,0.1839,0.1826,0.1822,0.1818,0.1861,0.1861,0.186,0.1859,0,0.0931,0.0981,0.1025,0.1105,0.1173,0.1235,0.1326,0.1351,0.1474,0.1572,0.1634,0.1687,0.1774,0.1831,0.187,0.1878,0.1946,0.192,0.1924,0.1864,0.1825,0.1813,0.1812,0.1851,0.1853,0.1853,0.1854,0,0.0899,0.092,0.0993,0.1058,0.1133,0.1174,0.1225,0.1293,0.1355,0.1508,0.1529,0.165,0.1761,0.1776,0.1812,0.1822,0.1787,0.1715,0.1729,0.1738,0.1676,0.1606,0.1566,0,0,0,0,0,0.0864,0.089,0.0942,0.1007,0.1075,0.1122,0.1214,0.1265,0.1381,0.1391,0.1455,0.1528,0.1589,0.1651,0.1635,0.1756,0.1795,0.173,0.1719,0.1807,0.1816,0.1757,0,0,0,0,0,0,0.0843,0.0892,0.0919,0.0954,0.0985,0.105,0.1102,0.1177,0.1186,0.1307,0.1349,0.1442,0.1525,0.1588,0.161,0.1629,0.1592,0.1808,0.1805,0.1802,0.181,0.1817,0.176,0,0,0,0,0]},{"header":{"parameterUnit":"m.s-1","parameterCategory":2,"la1":30.2991,"la2":30.254,"lo1":-89.0895,"lo2":-89.0444,"dy":0.0017,"dx":0.0017,"nx":28,"ny":28,"refTime":"2024-10-20T21:00:00:Z","depth":"4","parameterNumber":3,"parameterNumberName":"V-component_of_CURRENTS"},"data":[0,0,0,0,0,0,0,0,0,0,0,0,0,0,0,0,0,0,0,0,0,0,0,0,0,0,0,0,0,0,0,0,0,0,0,0,0,0,0,0,0,0,0,0,0,0,0,0,0,0,0,0,0,0,0,0,0,0,0.0084,0.0083,0,0.0035,0.0035,0.0034,0.0002,0.0002,0.0002,0.0002,-0.0076,-0.0077,-0.0079,0,0,0,0,0,0,0,0,0,0,0,0,0,0.0106,0.0106,0.0084,0.0083,0.0083,0.0036,0.0035,0.0034,0.0002,0.0002,0.0002,0.0002,-0.0075,-0.0077,-0.008,0,0,0,0,0,0,0,0,0,0,0,0,0,0.008,0.0106,0.0084,0.0062,0.0059,0.0036,0.0035,0.0034,0.0002,0.0002,0.0002,0.0002,-0.0074,-0.0077,-0.008,-0.0094,0,0,-0.0089,-0.009,0,0,0,0,0,0,0,0,0.0082,0.008,0.0066,0.0063,0.0061,0.0026,0.0014,-0.001,0.0002,0.0023,0.0002,0.0002,-0.0044,-0.0049,-0.0059,-0.0098,-0.0101,-0.0089,-0.0091,-0.0092,-0.0093,0,0,0,0,0,0,0,0.0084,0.0081,0.0063,0.0065,0.0062,0.004,0.0037,0.0009,-0.001,0.0021,0.0019,0.0015,-0.0045,-0.0056,-0.0061,-0.0103,-0.0089,-0.0092,-0.0093,-0.0095,-0.0152,-0.0151,0,0,0,0,0,0,0.0094,0.0083,0.0065,0.0062,0.0072,0.004,0.0036,0.0036,-0.0009,-0.0016,0.0016,0.0014,-0.0051,-0.0057,-0.0064,-0.0062,-0.0092,-0.0095,-0.0097,-0.0152,-0.0152,-0.0151,0,0,0,0,0,0,0.0095,0.0093,0.0067,0.0072,0.0067,0.0041,0.004,0.0035,0.0024,-0.0013,-0.002,0.0009,-0.0051,-0.006,-0.0084,-0.0066,-0.0096,-0.0099,-0.0152,-0.0152,-0.0151,-0.0072,0,0,0,0,0,0,0.0096,0.0094,0.0097,0.0073,0.0067,0.0059,0.0041,0.0035,0.0022,0.002,-0.0021,-0.0028,-0.0052,-0.008,-0.0087,-0.007,-0.0101,-0.0152,-0.0152,-0.0152,-0.0075,-0.0069,-0.0064,0,0,0,0,0,0.0097,0.0104,0.0097,0.0095,0.0073,0.0059,0.0054,0.0033,0.0022,0.0021,-0.0006,-0.0027,-0.0082,-0.0082,-0.0091,-0.0074,-0.0153,-0.0152,-0.0152,-0.0077,-0.007,-0.0064,0,0,0,0,0,0,0.0113,0.0101,0.0093,0.0095,0.0081,0.0054,0.0052,0.0035,0.0012,0.001,-0.0027,-0.0036,-0.005,-0.0078,-0.0077,-0.0091,-0.012,-0.0121,-0.006,-0.0054,-0.0048,-0.0025,-0.0104,0,0,0,0,0,0.0119,0.0123,0.0104,0.0106,0.0101,0.0076,0.0067,0.0054,0.0032,0.0021,-0.0007,-0.0036,-0.0055,-0.0067,-0.0093,-0.0103,-0.0128,-0.0098,-0.0093,-0.0088,-0.0076,-0.0094,-0.0089,-0.0149,-0.0149,-0.0149,0,0,0.0126,0.0119,0.0121,0.011,0.0097,0.0102,0.007,0.0063,0.0069,0.0016,0.0012,-0.002,-0.0055,-0.0062,-0.007,-0.0082,-0.0087,-0.0087,-0.0082,-0.0073,-0.0093,-0.0087,-0.0082,-0.0149,-0.0149,-0.0149,0,0,0.0147,0.0136,0.0149,0.0142,0.013,0.0118,0.0118,0.0094,0.0086,0.0074,0.0044,0.0026,-0.0015,-0.0024,-0.0037,-0.0018,-0.0059,-0.0033,0.0018,0.0001,0.0006,0.001,-0.0023,-0.0022,-0.0027,-0.0026,-0.0026,0,0.0155,0.017,0.0149,0.0161,0.0163,0.013,0.0147,0.0136,0.0107,0.0109,0.0082,0.0045,0.001,0.0021,0.0024,-0.0002,-0.0029,-0.0,0.001,0.0014,0.0017,-0.0018,-0.0019,-0.0023,-0.0023,-0.0023,-0.0024,0,0.0188,0.0199,0.0205,0.0215,0.0214,0.022,0.0208,0.0206,0.0187,0.0174,0.017,0.0126,0.0106,0.0093,0.0061,0.0073,0.0039,0.0019,-0.0001,0.0028,-0.0012,-0.0013,-0.0017,-0.0018,-0.002,-0.002,0,0,0.0208,0.0227,0.0229,0.0246,0.0244,0.0247,0.0266,0.0274,0.0286,0.026,0.0271,0.0243,0.0214,0.0198,0.016,0.0146,0.0133,0.0094,0.0091,0.0071,0.0079,0.0025,0.0018,0.0112,0.0113,0.0113,0.004,0,0.024,0.0278,0.0279,0.0317,0.0336,0.0325,0.0346,0.0348,0.0333,0.033,0.0305,0.0289,0.0256,0.0237,0.0225,0.0145,0.0134,0.0154,0.0044,0.0041,-0.0001,0.0017,0.0115,0.0038,0.0038,0.0038,0.0037,0,0.0272,0.0296,0.0341,0.0375,0.0383,0.0401,0.0426,0.0438,0.0433,0.0419,0.0413,0.0371,0.0349,0.0305,0.0232,0.0243,0.0174,0.012,0.0115,0.0039,-0.0015,0.0002,0.0034,0.0034,0.0035,0.0035,0.0035,0,0.0297,0.0338,0.0378,0.0388,0.0421,0.0444,0.0458,0.0467,0.0477,0.0466,0.0457,0.0434,0.0393,0.0335,0.0213,0.0219,0.0112,0.0104,0.0003,-0.0003,0.0034,0.003,0.0066,0.0066,0.0067,0.0067,0.0067,0,0.033,0.0361,0.0393,0.0414,0.0463,0.0473,0.0514,0.0522,0.0525,0.0531,0.0499,0.0481,0.0394,0.0315,0.0229,0.01,0.0125,0.0017,-0.0019,0.0065,0.0066,0.0031,0.0028,0.0064,0.0065,0.0065,0.0066,0,0.0348,0.037,0.0416,0.0459,0.0475,0.0505,0.0542,0.0564,0.0564,0.0564,0.0557,0.05,0.0395,0.0297,0.0167,0.01,-0.0008,-0.0058,0.0025,-0.0006,-0.011,-0.0108,-0.0158,-0.016,-0.0162,-0.0164,-0.0165,0,0.0362,0.0387,0.0441,0.0466,0.0486,0.053,0.056,0.058,0.0589,0.0569,0.056,0.0468,0.0413,0.0209,0.01,-0.0059,-0.0082,-0.0135,-0.0095,-0.01,-0.013,-0.0125,-0.012,-0.0168,-0.0169,-0.0169,-0.017,0,0.0381,0.0397,0.0431,0.0483,0.0519,0.056,0.0592,0.0601,0.0609,0.0613,0.0553,0.0454,0.0325,0.0188,0.0047,-0.0062,-0.0094,-0.0156,-0.0152,-0.0114,-0.0113,-0.014,-0.0133,-0.0177,-0.0176,-0.0175,-0.0175,0,0.0385,0.0407,0.0445,0.0489,0.0535,0.0562,0.0588,0.0591,0.0601,0.0577,0.0549,0.0434,0.0368,0.0182,0.0057,-0.0064,-0.008,-0.01,-0.0098,-0.0092,-0.0054,-0.0042,-0.0109,0,0,0,0,0,0.0384,0.0404,0.0447,0.0487,0.0531,0.0555,0.0596,0.0613,0.0618,0.058,0.0567,0.0451,0.0261,0.0184,0.0056,0.0014,-0.0109,-0.0142,-0.0132,-0.0216,-0.0208,-0.0179,0,0,0,0,0,0,0.0379,0.0417,0.044,0.0473,0.0497,0.054,0.0566,0.0575,0.0554,0.0549,0.0455,0.0414,0.0235,0.0333,0.0051,0.0013,0.0001,-0.0225,-0.0228,-0.022,-0.0213,-0.0206,-0.0175,0,0,0,0,0]}]]